Regional Weather Roundup
Issued by NWS

Home | Current Version | Previous Version | Text Only | Print | Product List | Glossary On
Versions: 1 2 3 4 5 6 7 8 9 10 11 12 13 14 15 16 17 18 19 20 21 22 23 24 25 26 27 28 29 30 31 32 33 34 35 36 37 38 39 40 41 42 43 44 45 46 47 48 49 50
856
ASUS43 KDMX 271101
RWRIA

WEATHER ROUNDUP FOR IOWA
NATIONAL WEATHER SERVICE DES MOINES IA
600 AM CDT THU JUL 27 2017

NOTE: "FAIR" INDICATES FEW OR NO CLOUDS BELOW 12,000 FEET WITH NO
SIGNIFICANT WEATHER AND/OR OBSTRUCTIONS TO VISIBILITY.

* - THESE STATIONS ARE NOT NWS STATIONS...THUS NOT UNDER NWS
QUALITY CONTROL.  THEY ALSO DO NOT REPORT WEATHER SUCH
AS PRECIPITATION OR FOG.

IAZ001>003-012>014-020>022-031>034-043>046-271200-
   NORTHWEST IOWA

CITY           SKY/WX    TMP DP  RH WIND       PRES   REMARKS
CARROLL *      CLEAR     64  63  94 N8        30.04R
CHEROKEE *     CLEAR     61  61 100 NE3       30.07R
DENISON *      CLEAR     64  63  94 NE6       30.07R
ORANGE CITY *  CLEAR     64  61  88 NE3       30.08R
SHELDON *      CLEAR     59  57  94 CALM      30.07R
SIOUX CITY     CLEAR     62  62 100 CALM      30.07R
SPENCER        CLEAR     62  60  93 N6        30.07R
STORM LAKE *   CLEAR     64  61  88 N8G14     30.07R
$$

IAZ055>058-069>071-079>083-090>094-271200-
   SOUTHWEST IOWA

CITY           SKY/WX    TMP DP  RH WIND       PRES   REMARKS
ATLANTIC *     CLEAR     66  64  94 NE6       30.03R
AUDUBON *      CLEAR     64  63  94 N3        30.05R
CLARINDA *     MOCLDY    70  70 100 CALM      30.03R
COUNCIL BLFS * CLEAR     66  66 100 N8        30.04R
CRESTON *      MOCLDY    70  70 100 N7        30.03R
HARLAN  *      CLEAR     66  64  94 N7        30.07R
LAMONI         CLOUDY    71  70  96 N9        30.00R
RED OAK *      CLEAR     70  68  94 N6        30.02R
SHENANDOAH *     N/A     70  70 100 NE6       30.01R
$$

IAZ047>049-059>061-072>074-084-271200-
   CENTRAL IOWA

CITY           SKY/WX    TMP DP  RH WIND       PRES   REMARKS
AMES           CLEAR     68  68 100 N10       30.00R
ANKENY *       CLEAR     70  68  94 N7        30.00R
BOONE *        CLEAR     66  64  94 N9        30.01R
CHARITON *     CLOUDY    70  70 100 N3        29.98R
DES MOINES     PTCLDY    71  69  93 N8        29.98R
GRINNELL*      CLEAR     67  66  95 CALM      30.00R
KNOXVILLE *    CLOUDY    72  68  88 N5        29.97R
MARSHALLTOWN   PTCLDY    69  67  93 N8        29.99R
NEWTON *       MOCLDY    68  68 100 N6        29.99R
PELLA *        CLOUDY    71  69  95 N3        29.98S
PERRY *          N/A     67  66  97 N5        30.01S
$$

IAZ004>006-015-016-023>025-035-036-271200-
   NORTH CENTRAL IOWA

CITY           SKY/WX    TMP DP  RH WIND       PRES   REMARKS
ALGONA *       CLEAR     63  63 100 N5        30.06R
CLARION *      CLEAR     61  61 100 CALM      30.04R
ESTHERVILLE    CLEAR     59  59 100 N5        30.06S
FORT DODGE *   CLEAR     63  61  94 N5        30.04S
MASON CITY     CLEAR     59  58  96 N3        30.05R
FOREST CITY *    N/A     63  61  94 N6        30.04S
WEBSTER CITY * CLEAR     63  61  94 N6        30.01R
IOWA FALLS *     N/A     66  63  89 N5        30.03R
$$

IAZ007>011-017>019-026>030-037>042-050>054-066-271200-
   NORTHEAST IOWA

CITY           SKY/WX    TMP DP  RH WIND       PRES   REMARKS
CHARLES CITY * CLEAR     63  63 100 N6        30.02S
DECORAH *      CLEAR     66  64  94 N7        30.01R
DUBUQUE        CLEAR     70  70 100 N9        29.98R
MONTICELLO *   MOCLDY    70  70 100 CALM      29.97R
OELWEIN *      CLEAR     68  68 100 N6        30.01R
WATERLOO       CLEAR     67  64  90 N8        29.99R
$$

IAZ064-065-067-068-078-271200-
   EAST CENTRAL IOWA

CITY           SKY/WX    TMP DP  RH WIND       PRES   REMARKS
DAVENPORT      CLOUDY    70  69  97 N9        29.96S
IOWA CITY      CLOUDY    74  70  87 N6        29.96S
MUSCATINE *    CLOUDY    73  72  94 VRB5      29.95R
QUAD CITIES    CLOUDY    72  69  90 NE5       29.93S
$$

IAZ062-063-075>077-085>089-095>099-271200-
   SOUTHEAST IOWA

CITY           SKY/WX    TMP DP  RH WIND       PRES   REMARKS
BURLINGTON     CLOUDY    75  74  96 CALM      29.94R
FAIRFIELD *    CLOUDY    70  68  94 N6        29.95S FOG
FORT MADISON * CLOUDY    73  73 100 CALM      29.95R FOG
KEOKUK *       LGT RAIN  73  73 100 CALM      29.94R
OSKALOOSA *    CLOUDY    70  69  97 N3        29.98R
OTTUMWA        CLOUDY    71  71 100 N6        29.96R
WASHINGTON *   CLOUDY    72  72 100 N3        29.96S
$$

ABBREVIATIONS USED IN REMARKS
   TC - TEMPERATURES IN CELSIUS
  WCI - WIND CHILL INDEX
   HX - HEAT INDEX
  VSB - VISIBILITY
$$





USA.gov is the U.S. government's official web portal to all federal, state and local government web resources and services.